Location: Joffre
(52.3362°N, 113.5373°W)
Time: 12:34:28
(UTC+00:00)

N. Korean satellite - Pass Details

Date: 09 December 2021
Orbit: 447 x 491 km, 97.3° (Epoch: 21 January)

Event Time Altitude Azimuth Distance (km) Brightness Sun altitude
Rises 00:30:28 0° 191° (S) 2,509 10.7 -9.8°
Reaches altitude 10° 00:32:43 10° 203° (SSW) 1,628 10.0 -10.2°
Maximum altitude 00:35:47 28° 264° (W) 900 8.8 -10.6°
Drops below altitude 10° 00:38:50 10° 326° (NW) 1,618 9.4 -11.0°
Sets 00:41:04 0° 338° (NNW) 2,490 10.2 -11.3°
